2024-166A (61179 NORAD) Tracking and Keplerian Element Data

This shows tracking and keplerian element data for the satellite.

Feedback or suggestion? Click here.




ElementValue
Catalog61179
Name2024-166A
Epoch Orbit404
Epoch Day286.87915573
Epoch Year2024
RAAN181.8238
Inclination96.7644
Eccentricity0.0015533
Argument of Perigee142.3454
Mean Anonmoly217.8906
Mean Motion15.81422283
Decay Rate0.00077497
L11 61179U 24166A 24286.87915573 .00077497 00000+0 38750-3 0 9999
L22 61179 96.7644 181.8238 0015533 142.3454 217.8906 15.81422283 4040



Live tracking and technical data element details for 2024-166A (NORAD 61179). 2024-166A can be tracked NOW for your location showing map with azimuth and elevation plus other details from your city location.







IsCatalogInMostPopularTable: catalog: 61179, numindb: 23
Update: records affected: 1



GetName: 61179 2024-166A

Hit Count: updated at: Wed, 04 Dec 2024 08:50:19 GMT